Volver al catálogo

SL-16 DEB

ActivoLEO
NORAD 43374·DEBRIS·🇷🇺 Russia

Lanzado Jun 29, 2007 desde Baikonur Cosmodrome

Loading…

Próximos Pases (próximas 24 horas)

TLE

ActualizadoSource: Space-Track

Época: Sep 13, 2026, 03:53 UTC

1 43374U 07029R   26256.16203240  .00002250  00000-0  15790-2 0  9991
2 43374  71.0656  77.8796 0185727 132.7024 228.9898 13.91325354644210

Sigue SL-16 DEB en tiempo real con AllMySat

Download on the App Store